Retour au catalogue

STARLINK-37923

ActifCommunicationsVLEO
NORAD 69949·PAYLOAD·🇺🇸 United States

Lancé Jul 9, 2026 depuis Cape Canaveral Space Force Station

Loading…

Prochains Passages (prochaines 24 heures)

TLE

FraisSource: CelesTrak SupGP

Époque: Sep 14, 2026, 15:54 UTC

1 69949C 26157G   26257.66298611 -.00011965  00000+0 -35371-3 0  2571
2 69949  53.1591   1.3241 0001223  85.8915 235.3072 15.34379692    10

Suivez STARLINK-37923 en temps réel avec AllMySat

Download on the App Store